Weather reports worldwide

Advertisment
Nottingham/Watnall, United Kingdom (3354): temperature & dewpoint: 18.06.2017 04:00:00 - 24.06.2017 04:00:00 (BST)Nottingham/Watnall, United Kingdom (3354): temperature 5cm: 18.06.2017 04:00:00 - 24.06.2017 04:00:00 (BST)Nottingham/Watnall, United Kingdom (3354): temperature -20cm & temperature -100cm: 18.06.2017 04:00:00 - 24.06.2017 04:00:00 (BST)Nottingham/Watnall, United Kingdom (3354): wind speed & gusts: 18.06.2017 04:00:00 - 24.06.2017 04:00:00 (BST)Nottingham/Watnall, United Kingdom (3354): wind direction: 18.06.2017 04:00:00 - 24.06.2017 04:00:00 (BST)Nottingham/Watnall, United Kingdom (3354): reduced air pressure: 18.06.2017 04:00:00 - 24.06.2017 04:00:00 (BST)Nottingham/Watnall, United Kingdom (3354): visibility: 18.06.2017 04:00:00 - 24.06.2017 04:00:00 (BST)Nottingham/Watnall, United Kingdom (3354): sunshine duration: 18.06.2017 04:00:00 - 24.06.2017 04:00:00 (BST)Nottingham/Watnall, United Kingdom (3354): precipitation: 18.06.2017 04:00:00 - 24.06.2017 04:00:00 (BST)
Date & Time tt [°C] td [°C] tt 5cm [°C] tt -20cm [°C] tt -100cm [°C] ff [km/h] ff [kn] fx [km/h] fx [kn] dd ppp [hPa] vv [km] sd [min] rr [mm]
24.06.2017 04:00:00 16,0 13,9 - - - 16 9 - - WSW 1011,7 45 0 0,0
24.06.2017 03:00:00 15,9 14,0 - - - 18 10 - - SW 1011,6 45 0 0,0
24.06.2017 02:00:00 16,1 13,8 - - - 18 10 - - WSW 1011,8 40 0 0,0
24.06.2017 01:00:00 16,3 13,7 - - - 16 9 - - WSW 1012,2 40 - 0,0
24.06.2017 00:00:00 15,8 14,2 - - - 11 6 - - WSW 1012,8 35 0 0,0
23.06.2017 23:00:00 16,3 13,9 - - - 11 6 - - WSW 1013,1 30 0 0,0
23.06.2017 22:00:00 16,9 13,5 - - - 16 9 - - WSW 1013,0 27 0 0,0
23.06.2017 21:00:00 17,5 13,4 - - - 15 8 - - WSW 1013,2 40 0 0,0
23.06.2017 20:00:00 17,7 13,4 - - - 16 9 - - SW 1013,0 50 0 0,0
23.06.2017 19:00:00 17,8 13,5 - - - 16 9 - - SW 1013,0 50 0 0,0
23.06.2017 18:00:00 17,9 13,6 - - - 16 9 - - SW 1013,1 35 0 0,0
23.06.2017 17:00:00 18,1 13,6 - - - 16 9 - - SW 1013,1 50 0 0,0
23.06.2017 16:00:00 18,2 13,4 - - - 18 10 - - SW 1013,3 35 0 0,0
23.06.2017 15:00:00 18,3 13,3 - - - 16 9 46 25 WSW 1013,2 40 0 0,0
23.06.2017 14:00:00 18,4 13,2 - - - 22 12 - - WSW 1013,2 50 0 0,0
23.06.2017 13:00:00 18,3 12,6 - - - 21 11 - - WSW 1013,0 30 12 0,0
23.06.2017 12:00:00 18,8 13,1 - - - 24 13 48 26 WSW 1012,9 35 24 0,0
23.06.2017 11:00:00 16,4 11,9 - - - 22 12 - - WSW 1013,1 28 0 0,0
23.06.2017 10:00:00 15,3 11,5 - 19,0 16,7 18 10 - - WSW 1013,2 35 0 0,0
23.06.2017 09:00:00 14,7 11,4 - - - 22 12 - - WSW 1012,7 30 0 0,0
23.06.2017 08:00:00 14,2 10,6 - - - 16 9 - - WSW 1012,6 35 0 0,0
23.06.2017 07:00:00 13,7 10,2 - - - 16 9 - - WSW 1012,7 30 0 0,0
23.06.2017 06:00:00 13,3 10,3 - - - 13 7 - - SW 1012,8 35 0 0,0
23.06.2017 05:00:00 13,2 10,2 - - - 13 7 - - SW 1012,6 30 0 0,0
23.06.2017 04:00:00 13,0 10,4 - - - 11 6 - - SW 1012,9 29 0 0,0
23.06.2017 03:00:00 13,1 10,3 - - - 13 7 - - WSW 1013,2 25 0 0,0
23.06.2017 02:00:00 13,3 10,6 - - - 15 8 - - WSW 1013,3 40 0 0,0
23.06.2017 01:00:00 13,7 11,5 - - - 13 7 - - WSW 1013,5 21 - 0,0
23.06.2017 00:00:00 13,6 11,2 - - - 8 4 - - WSW 1013,4 17 0 0,0
22.06.2017 23:00:00 14,8 11,5 - - - 11 6 - - W 1013,3 18 0 0,0
22.06.2017 22:00:00 15,2 11,6 - - - 8 4 - - W 1013,3 24 0 0,0
22.06.2017 21:00:00 16,2 11,6 - - - 15 8 - - W 1013,0 28 0 0,0
22.06.2017 20:00:00 17,2 11,6 - - - 13 7 - - W 1012,6 23 42 0,0
22.06.2017 19:00:00 18,3 11,9 - - - 22 12 46 25 W 1012,0 40 60 0,0
22.06.2017 18:00:00 18,8 11,6 - - - 18 10 - - W 1011,6 35 42 0,0
22.06.2017 17:00:00 18,8 12,4 - - - 18 10 - - WNW 1011,6 35 24 0,0
22.06.2017 16:00:00 18,8 12,8 - - - 21 11 - - W 1011,2 29 24 0,0
22.06.2017 15:00:00 17,9 14,1 - - - 11 6 - - WNW 1011,0 30 18 0,0
22.06.2017 14:00:00 17,4 14,2 - - - 18 10 - - W 1010,5 19 0 0,0
22.06.2017 13:00:00 17,9 14,0 - - - 18 10 - - W 1010,1 45 0 0,0
22.06.2017 12:00:00 17,9 13,6 - - - 18 10 - - W 1009,7 18 0 0,0
22.06.2017 11:00:00 18,6 13,5 - - - 21 11 - - WSW 1009,3 19 30 0,0
22.06.2017 10:00:00 - - - - - - - - - - - - - -
22.06.2017 09:00:00 17,7 12,9 - - - 18 10 - - W 1009,6 17 18 0,0
22.06.2017 08:00:00 17,6 13,6 - - - 18 10 - - WSW 1009,4 14 18 0,0
22.06.2017 07:00:00 17,3 14,0 - - - 13 7 - - WSW 1009,4 17 0 0,0
22.06.2017 06:00:00 17,4 14,8 - - - 11 6 - - W 1008,9 11 0 0,0
22.06.2017 05:00:00 19,0 16,0 - - - 15 8 - - WSW 1008,4 13 0 0,0
22.06.2017 04:00:00 20,5 16,6 - - - 9 5 - - WSW 1008,3 23 0 0,0
22.06.2017 03:00:00 21,6 17,2 - - - 13 7 - - WSW 1008,6 18 0 0,0
22.06.2017 02:00:00 21,6 19,3 - - - 5 3 - - SW 1008,9 8 0 0,0
22.06.2017 01:00:00 22,6 19,5 - - - 9 5 - - SW 1009,2 12 - 0,0
22.06.2017 00:00:00 23,1 19,4 - - - 5 3 - - S 1009,5 14 0 0,0
21.06.2017 23:00:00 23,7 19,2 - - - 13 7 - - SSE 1009,6 16 0 0,0
21.06.2017 22:00:00 24,0 19,7 - - - 13 7 - - ESE 1010,0 15 0 0,0
21.06.2017 21:00:00 24,6 19,9 - - - 9 5 - - E 1010,4 15 0 0,0
21.06.2017 20:00:00 26,0 19,5 - - - 8 4 - - SE 1010,7 17 0 0,0
21.06.2017 19:00:00 26,3 19,3 - - - 9 5 - - ESE 1011,0 17 6 0,0
21.06.2017 18:00:00 25,4 19,4 - - - 9 5 - - E 1011,4 15 0 0,0
21.06.2017 17:00:00 26,1 18,6 - - - 4 2 - - SSW 1013,2 20 0 0,0
21.06.2017 16:00:00 26,4 18,7 - - - 11 6 - - ESE 1012,6 15 0 0,0
21.06.2017 15:00:00 26,7 17,7 - - - 11 6 - - ESE 1013,2 16 42 0,0
21.06.2017 14:00:00 25,8 17,4 - - - 9 5 - - E 1014,4 12 60 0,0
21.06.2017 13:00:00 24,6 17,4 - - - 5 3 - - ESE 1015,3 13 60 0,0
21.06.2017 12:00:00 23,0 16,9 - - - 8 4 - - ESE 1015,8 13 60 0,0
21.06.2017 11:00:00 21,1 15,2 - - - 9 5 - - ENE 1016,2 14 60 0,0
21.06.2017 10:00:00 19,5 14,6 19,5 19,4 16,2 8 4 - - ESE 1016,6 17 60 0,0
21.06.2017 09:00:00 17,7 13,8 - - - 13 7 - - ESE 1017,0 12 54 0,0
21.06.2017 08:00:00 16,0 12,9 - - - 13 7 - - E 1017,8 19 60 0,0
21.06.2017 07:00:00 14,0 12,2 - - - 9 5 - - ENE 1018,6 19 18 0,0
21.06.2017 06:00:00 12,6 11,3 - - - 9 5 - - ENE 1018,8 19 0 0,0
21.06.2017 05:00:00 12,0 10,6 - - - 9 5 - - NE 1019,2 18 0 0,0
21.06.2017 04:00:00 12,5 11,3 - - - 9 5 - - ENE 1018,7 16 0 0,0
21.06.2017 03:00:00 12,6 11,6 - - - 11 6 - - ENE 1019,2 12 0 0,0
21.06.2017 02:00:00 13,4 12,1 - - - 13 7 - - ENE 1019,8 14 0 0,0
21.06.2017 01:00:00 14,4 12,7 - - - 13 7 - - ENE 1020,0 15 - 0,0
21.06.2017 00:00:00 14,8 13,5 - - - 15 8 - - ENE 1020,1 9 0 0,0
20.06.2017 23:00:00 15,2 13,7 - - - 16 9 - - ENE 1020,3 9 0 0,0
20.06.2017 22:00:00 15,9 14,2 - - - 13 7 - - ENE 1020,4 10 0 0,0
20.06.2017 21:00:00 16,6 14,8 - - - 15 8 - - ENE 1020,0 9 0 0,0
20.06.2017 20:00:00 17,3 15,1 - - - 15 8 - - ENE 1019,8 8 0 0,0
20.06.2017 19:00:00 17,9 15,6 - - - 13 7 - - NE 1019,6 7 0 0,0
20.06.2017 18:00:00 17,9 15,5 - - - 13 7 - - ENE 1019,8 8 0 0,0
20.06.2017 17:00:00 17,9 15,3 - - - 15 8 - - ENE 1020,1 7 0 0,0
20.06.2017 16:00:00 18,2 15,3 - - - 15 8 - - NE 1020,4 10 0 0,0
20.06.2017 15:00:00 18,4 15,2 - - - 15 8 - - ENE 1020,4 12 0 0,0
20.06.2017 14:00:00 18,4 15,2 - - - 16 9 - - NE 1020,5 12 0 0,0
20.06.2017 13:00:00 18,8 15,4 - - - 16 9 - - NE 1020,6 11 0 0,0
20.06.2017 12:00:00 18,6 15,3 - - - 16 9 - - NE 1020,8 8 0 0,0
20.06.2017 11:00:00 17,7 15,0 - - - 15 8 - - NE 1020,6 7 0 0,0
20.06.2017 10:00:00 17,3 14,9 23,2 20,2 16,0 15 8 - - NE 1020,3 7 0 0,0
20.06.2017 09:00:00 17,0 15,0 - - - 16 9 - - NE 1020,1 6 0 0,0
20.06.2017 08:00:00 16,6 14,7 - - - 13 7 - - NNE 1019,8 6 0 0,0
20.06.2017 07:00:00 16,5 14,7 - - - 13 7 - - NNE 1019,5 6 0 0,0
20.06.2017 06:00:00 16,1 14,0 - - - 11 6 - - N 1019,3 11 0 0,0
20.06.2017 05:00:00 16,6 14,2 - - - 15 8 - - N 1018,9 12 0 0,0
20.06.2017 04:00:00 17,3 14,2 - - - 15 8 - - N 1018,6 18 0 0,0
20.06.2017 03:00:00 19,4 15,5 - - - 13 7 - - N 1018,4 23 0 0,0
20.06.2017 02:00:00 20,2 15,6 - - - 9 5 - - N 1018,2 18 0 0,0
20.06.2017 01:00:00 20,9 18,0 - - - 5 3 - - N 1018,4 12 - 0,0
20.06.2017 00:00:00 21,5 18,5 - - - 8 4 - - N 1018,4 17 0 0,0
19.06.2017 23:00:00 21,9 17,9 - - - 8 4 - - NNE 1018,3 15 0 0,0
19.06.2017 22:00:00 23,2 16,1 - - - 9 5 - - NNE 1018,1 19 0 0,0
19.06.2017 21:00:00 25,4 16,1 - - - 8 4 - - N 1017,7 8 0 0,0
19.06.2017 20:00:00 27,5 16,5 - - - 5 3 - - NNW 1017,3 30 36 0,0
19.06.2017 19:00:00 28,4 15,3 - - - 8 4 - - NW 1017,2 45 54 0,0
19.06.2017 18:00:00 28,9 15,7 - - - 5 3 - - N 1017,2 13 54 0,0
19.06.2017 17:00:00 29,0 14,8 - - - 5 3 - - NW 1017,5 15 36 0,0
19.06.2017 16:00:00 29,2 15,1 - - - 8 4 - - W 1017,9 28 54 0,0
19.06.2017 15:00:00 28,9 15,1 - - - 8 4 - - WNW 1018,2 40 54 0,0
19.06.2017 14:00:00 28,6 15,1 - - - 5 3 - - W 1018,6 35 54 0,0
19.06.2017 13:00:00 28,0 15,9 - - - 5 3 - - WSW 1019,1 30 48 0,0
19.06.2017 12:00:00 27,2 16,0 - - - 8 4 - - W 1019,6 18 54 0,0
19.06.2017 11:00:00 26,9 17,1 - - - 5 3 - - NE 1019,7 40 60 0,0
19.06.2017 10:00:00 25,3 16,8 25,5 19,7 15,5 4 2 - - NNE 1020,0 35 60 0,0
19.06.2017 09:00:00 23,4 15,7 - - - 4 2 - - ENE 1020,3 20 60 0,0
19.06.2017 08:00:00 22,5 15,3 - - - 5 3 - - ENE 1020,4 27 60 0,0
19.06.2017 07:00:00 20,2 14,6 - - - 2 1 - - N 1020,5 35 54 0,0
19.06.2017 06:00:00 18,2 14,1 - - - 4 2 - - NNW 1020,7 12 0 0,0
19.06.2017 05:00:00 17,1 14,2 - - - 2 1 - - WSW 1020,8 35 0 0,0
19.06.2017 04:00:00 17,6 13,7 - - - 4 2 - - NNW 1020,9 35 0 0,0
19.06.2017 03:00:00 18,2 13,8 - - - 5 3 - - NNE 1021,1 35 0 0,0
19.06.2017 02:00:00 19,1 14,4 - - - 5 3 - - NNE 1021,3 45 0 0,0
19.06.2017 01:00:00 19,6 14,8 - - - 5 3 - - NNE 1021,6 35 - 0,0
19.06.2017 00:00:00 21,3 14,9 - - - 8 4 - - N 1021,6 30 0 0,0
18.06.2017 23:00:00 22,6 14,7 - - - 5 3 - - NNE 1021,5 50 0 0,0
18.06.2017 22:00:00 24,1 15,1 - - - 5 3 - - NNE 1021,2 45 0 0,0
18.06.2017 21:00:00 26,1 15,2 - - - 4 2 - - N 1020,9 45 54 0,0
18.06.2017 20:00:00 27,9 14,7 - - - 5 3 - - N 1021,0 27 60 0,0
18.06.2017 19:00:00 28,7 14,6 - - - 5 3 - - W 1021,1 50 60 0,0
18.06.2017 18:00:00 28,5 14,6 - - - 8 4 - - NW 1021,4 35 54 0,0
18.06.2017 17:00:00 28,5 14,5 - - - 8 4 - - W 1021,6 35 54 0,0
18.06.2017 16:00:00 28,1 14,0 - - - 11 6 - - WNW 1021,9 30 54 0,0
18.06.2017 15:00:00 28,4 14,3 - - - 8 4 - - WNW 1022,1 18 60 0,0
18.06.2017 14:00:00 27,2 14,8 - - - 9 5 - - SW 1022,7 30 60 0,0
18.06.2017 13:00:00 26,9 15,3 - - - 11 6 - - SW 1023,1 27 60 0,0
18.06.2017 12:00:00 25,3 14,0 - - - 13 7 - - SW 1023,7 30 60 0,0
18.06.2017 11:00:00 23,9 13,9 - - - 11 6 - - SW 1024,1 50 60 0,0
18.06.2017 10:00:00 22,5 13,3 22,6 18,7 15,2 11 6 - - SW 1024,4 30 60 0,0
18.06.2017 09:00:00 20,7 12,1 - - - 9 5 - - SW 1024,7 22 60 0,0
18.06.2017 08:00:00 18,8 12,1 - - - 5 3 - - WSW 1024,8 24 60 0,0
18.06.2017 07:00:00 17,5 12,7 - - - 5 3 - - WSW 1024,7 26 60 0,0
18.06.2017 06:00:00 15,8 13,7 - - - 4 2 - - SSW 1024,6 24 24 0,0
18.06.2017 05:00:00 15,0 12,9 - - - 0 0 - - N 1024,6 23 0 0,0
18.06.2017 04:00:00 16,4 13,3 - - - 4 2 - - WNW 1024,7 23 0 0,0

tt = temperature
td = dewpoint
tt 5cm = temperature 5cm
tt -20cm = temperature -20cm
tt -100cm = temperature -100cm
ff = wind speed
fx = gusts
dd = wind direction
ppp = reduced air pressure
vv = visibility
sd = sunshine duration
rr = precipitation

Next stations